Flag for United Kingdom Weather past 2 weeks in Winchester, England, United Kingdom

Now
63 °F

Light rain. Overcast.


Feels Like: 63 °F
Forecast: 57 / 68 °F
Wind: 13 mph from Southeast

Location: Middle Wallop

Current Time: Aug 27, 2014 at 3:56:02 PM

Latest Report: Aug 27, 2014 at 2:59 PM


Visibility: 3 mi

Pressure: 29.92 "Hg

Humidity: 83%

Dew point: 57 °F

Location of WinchesterLocation

Historic Weather in Winchester — Graph

°F

Winchester temperature yesterday

Maximum temperature yesterday: 66 °F (at 1:50 PM)
Minimum temperature yesterday: 57 °F (at 11:50 PM)
Average temperature yesterday: 61 °F

Past Weeks' High & Low Weather Summary

 TemperatureHumidityPressure
High68 °F (Aug 13, 4:50 PM)100% (Aug 16, 4:50 AM)30.18 "Hg (Aug 16, 4:50 AM)
Low41 °F (Aug 21, 6:50 AM)37% (Aug 23, 1:50 PM)29.53 "Hg (Aug 26, 5:50 AM)
Average57 °F75%29.91 "Hg
* Reported Aug 12 2:50 PM — Aug 27 2:50 PM, Winchester, Weather by CustomWeather, © 2014

Note: Actual official high and low records may vary slightly from our data, if they occured in-between our weather recording intervals... More about our weather records

Advertising

Winchester weather history for previous 24 hours

 ConditionsComfort  
Time TempWeatherWind HumidityBarometerVisibility
2:50 PM
Aug 27
63 °FLight rain. Overcast.13 mph83%29.92 "Hg3 mi
1:50 PM64 °FPartly sunny.14 mph73%29.92 "HgN/A
12:50 PM64 °FLight rain. Broken clouds.13 mph73%29.95 "HgN/A
11:50 AM63 °FPartly sunny.17 mph73%29.95 "HgN/A
11:19 AM64 °FBroken clouds.17 mph68%29.95 "HgN/A
10:50 AM63 °FPartly sunny.16 mph73%29.95 "HgN/A
9:50 AM59 °FPartly sunny.13 mph77%29.95 "HgN/A
8:50 AM57 °FPartly sunny.12 mph82%29.95 "HgN/A
7:50 AM54 °FScattered clouds.13 mph88%29.95 "HgN/A
6:50 AM52 °FPassing clouds.12 mph88%29.95 "HgN/A
5:50 AM52 °FPassing clouds.6 mph88%29.95 "HgN/A
4:50 AM52 °FPassing clouds.8 mph88%29.95 "HgN/A
3:50 AM52 °FClear.10 mph88%29.92 "HgN/A
2:50 AM54 °FPassing clouds.8 mph82%29.92 "HgN/A
1:50 AM55 °FClear.12 mph82%29.92 "HgN/A
12:50 AM55 °FPassing clouds.12 mph82%29.92 "HgN/A
11:50 PM
Aug 26
57 °FPassing clouds.12 mph77%29.89 "HgN/A
10:50 PM59 °FPartly cloudy.14 mph77%29.89 "HgN/A
9:50 PM59 °FPartly cloudy.14 mph82%29.86 "HgN/A
8:50 PM61 °FBroken clouds.15 mph77%29.83 "HgN/A
7:50 PM61 °FPartly sunny.13 mph83%29.80 "HgN/A
6:50 PM61 °FBroken clouds.12 mph83%29.80 "HgN/A
5:50 PM63 °FBroken clouds.16 mph77%29.77 "HgN/A
4:50 PM64 °FPassing clouds.18 mph73%29.74 "HgN/A
3:50 PM63 °FBroken clouds.16 mph83%29.71 "HgN/A
Weather by CustomWeather, © 2014

See weather overviewHow to use our weather pages